Regional Weather Roundup
Issued by NWS Midland/Odessa, TX

Skip options and go directly to product.
Home | Oldest Version | Next Version | Current Version | All | Text Only | Save Text | Print | Product List | Glossary On

Skip product version selection by date and time.   
962
ASUS44 KMAF 192202
RWRMAF
MIDLAND AREA WEATHER ROUNDUP
NATIONAL WEATHER SERVICE MIDLAND TX
500 PM CDT TUE AUG 19 2014

...IN SOUTHWEST TEXAS AND SOUTHEAST NEW MEXICO...

CITY           SKY/WX    TMP DP  RH WIND       PRES   REMARKS
ALPINE         CLOUDY    76  64  65 S3        30.03F
ANDREWS        LGT RAIN  92  60  34 SE12      29.86F
ARTESIA        MOSUNNY   93  50  22 S6        29.84F
BIG SPRING     SUNNY     93  65  39 SE13G18   29.88F
CARLSBAD       SUNNY     96  51  21 S12G18    29.81F
DRYDEN           N/A     96  63  33 E12       29.82F
FORT STOCKTON  SUNNY     90  63  40 SE13      29.86F
GUAD PASS      SUNNY     91  51  25 SW21      30.02F
HOBBS          PTSUNNY   93  52  24 SE12      29.88F
MARFA          PTSUNNY   82  59  44 S8        30.03S
MIDLAND AIRPK  SUNNY     92  58  31 S9        29.87F
MIDLAND INTL   MOSUNNY   93  61  34 S13G22    29.85F
ODESSA         MOSUNNY   92  59  33 SE10      29.87F
PECOS          SUNNY     97  51  21 S7        29.80F
PRESIDIO       MOCLDY    94  58  30 E5        29.84F
SEMINOLE       PTSUNNY   88  56  33 SW5       29.89F
SNYDER         MOSUNNY   89  65  45 S13G20    29.87F
WINK           MOSUNNY   96  54  24 S6        29.81F
$$
...OTHER STATIONS IN TEXAS...

CITY           SKY/WX    TMP DP  RH WIND       PRES   REMARKS
ABILENE        SUNNY     89  62  40 S16       29.86F
AMARILLO       MOSUNNY   89  59  36 SE17      29.90F
AUSTIN         PTSUNNY   96  62  32 S17       29.82F
BROWNSVILLE    SUNNY     94  71  47 SE25      29.83F HX 101
CORPUS CHRISTI MOSUNNY   93  73  52 SE26      29.82F HX 102
DALLAS FTW     PTSUNNY   93  69  45 S14       29.85F
DEL RIO        SUNNY     93  66  40 SE12G17   29.79F
EL PASO        PTSUNNY   90  53  28 SW10      29.89F
HOUSTON INT    CLOUDY    87  73  62 SE18      29.88F
LUBBOCK        MOSUNNY   89  57  33 S10       29.88F
SAN ANGELO     PTSUNNY   89  66  46 S10       29.85F
SAN ANTONIO    PTSUNNY   98  61  29 S17       29.82F
WACO           SUNNY     95  59  30 S13G22    29.84F
WICHITA FALLS  NOT AVBL
$$
...OTHER LOCATIONS IN NEW MEXICO...

CITY           SKY/WX    TMP DP  RH WIND       PRES   REMARKS
ALAMAGORDO     MOSUNNY   93  50  22 S13       29.88F
ALBUQUERQUE    PTSUNNY   89  39  17 SW17      29.96F
CANNON AFB     NOT AVBL
CLOVIS           N/A     90  54  29 SW8G16    29.93F
HOLLOMAN AFB   MOSUNNY   92  50  23 S12G18    29.86F
ROSWELL        SUNNY     94  48  20 E7        29.85F
RUIDOSO        PTSUNNY   77  39  25 SE14      30.12F
SANTA FE       PTSUNNY   83  41  22 S8        30.03F
TRUTH OR CONSE MOSUNNY   87  48  25 W6        29.93F
TUCUMCARI      MOSUNNY   97  46  17 E6        29.85F
$$

USA.gov is the U.S. government's official web portal to all federal, state and local government web resources and services.